Temp
13 14 14 14 14 14 14 14 13 14 14 14 13 13 13 13 12 12 11 11 10 9 9 9 9 9 9 9 8 8 8 8 8 8 8 8 8 9 9 9 9 9 9 9
14 14 14 15 15 15 15 15 14 14 14 13 13 13 13 13 13 12 12 11 11 10 10 9 9 9 9 8 8 8 8 8 8 8 8 9 9 9 9 9 10 10 9 9
14 14 15 15 16 16 16 15 15 15 14 14 14 13 14 14 13 12 12 11 11 11 11 10 10 9 9 9 8 8 8 8 8 8 8 9 9 9 9 9 9 9 9 9
14 14 15 15 16 16 16 15 15 15 15 15 14 16 14 14 14 13 12 12 11 11 10 10 9 9 9 9 8 8 8 8 8 8 8 9 9 9 9 9 9 9 9 9
14 14 15 15 15 15 15 15 16 15 14 14 14 14 13 15 15 13 12 11 11 11 10 10 10 10 9 9 8 8 8 8 8 8 8 8 8 9 9 9 10 9 9 9
13 14 14 15 15 15 15 15 15 15 15 15 14 14 13 14 14 14 13 11 11 11 10 10 10 10 9 9 9 8 8 8 8 8 7 7 7 8 9 9 10 10 10 10
13 14 14 14 14 14 14 14 15 15 15 16 13 12 11 12 12 13 14 13 11 10 11 11 10 10 9 9 9 9 9 8 8 8 8 8 8 8 8 9 10 10 10 10
13 14 13 13 14 14 14 14 15 14 15 15 10 12 9 12 12 13 13 13 11 10 10 10 11 10 9 9 9 9 9 8 8 8 8 8 8 8 9 9 9 10 9 10
13 13 13 13 14 14 14 13 14 13 11 12 10 9 9 10 11 12 12 11 10 10 10 10 11 11 9 9 10 10 8 8 8 9 8 8 9 8 9 10 10 10 10 10
13 13 13 13 13 13 13 13 13 13 12 13 10 9 10 10 10 11 11 11 10 9 9 10 10 10 11 10 9 9 9 10 9 9 9 10 10 10 10 10 10 11 10 10
13 13 12 12 12 13 13 12 13 13 11 13 12 11 10 10 9 9 9 9 9 8 8 9 9 10 10 10 10 10 10 10 10 10 10 9 9 10 10 10 11 11 11 11
13 13 12 11 12 12 12 12 12 13 10 10 10 9 8 8 9 9 11 11 10 10 9 9 10 10 10 9 8 9 8 9 10 10 9 9 9 10 10 10 11 11 11 11
13 12 10 10 11 11 11 12 12 12 12 10 12 9 8 7 8 8 9 9 9 9 9 9 9 9 9 9 8 8 8 9 9 9 9 9 9 9 9 10 10 10 10 11
13 13 13 13 12 11 11 11 11 11 11 11 10 10 8 7 7 7 8 8 8 8 8 8 7 7 7 7 8 8 8 8 8 8 8 8 9 9 9 10 10 10 10 10
12 12 12 12 12 12 11 10 10 10 10 11 11 10 9 7 7 7 7 7 7 7 7 6 6 6 6 7 7 7 7 8 8 8 8 8 8 9 9 9 10 10 10 10
12 11 11 10 9 9 9 9 9 9 10 10 10 9 9 7 7 6 6 6 6 6 6 6 7 7 7 7 7 7 8 8 8 8 8 8 9 9 9 9 9 10 10 10
11 11 9 8 8 8 8 8 8 9 9 9 9 10 9 7 6 5 6 6 6 6 6 6 7 7 7 7 7 7 7 7 7 7 7 8 8 8 8 8 9 9 9 10
10 10 9 8 8 8 7 7 7 8 8 8 8 7 7 6 5 5 5 6 6 6 6 6 6 6 7 6 6 6 6 6 6 6 6 7 7 7 7 8 8 8 9 9
9 9 9 7 6 6 6 6 7 6 7 6 6 7 6 5 5 5 5 5 5 5 5 6 6 6 6 5 5 5 5 5 5 5 6 6 6 7 7 7 7 7 8 8
8 8 8 7 6 7 6 6 6 6 6 6 6 6 5 5 5 5 5 4 4 5 5 5 5 4 4 4 4 4 4 4 3 4 4 4 4 5 5 6 6 7 7 8
7 7 7 7 6 6 7 6 6 6 6 5 5 5 5 5 4 4 4 4 4 4 4 4 4 4 3 3 3 3 3 2 2 2 2 2 1 2 3 4 4 5 5 7
7 7 6 6 6 6 6 6 6 5 5 5 5 4 4 4 3 3 3 3 3 3 3 3 3 2 2 2 2 2 2 1 1 1 0 -1 -2 0 2 2 2 3 4 5
6 6 6 6 6 6 6 6 5 5 4 4 4 3 3 3 2 2 2 2 2 2 2 2 2 2 1 2 1 1 1 0 0 -1 -1 -1 -2 -1 -1 1 3 3 3 4
6 6 6 6 6 6 5 5 4 4 4 3 3 3 2 2 1 1 1 1 1 1 1 1 1 1 1 0 0 -0 -1 -1 -1 -2 -3 -2 -1 -1 -0 1 2 2 0 2
6 6 6 5 5 5 4 4 4 3 3 3 2 2 1 1 1 1 1 1 1 1 1 1 1 -0 -0 -0 -0 -1 -2 -2 -2 -2 -3 -4 -3 -2 -2 -1 -0 0 -0 0
5 5 5 5 4 4 4 3 3 3 2 2 1 1 1 1 0 0 0 0 0 0 0 -0 -1 -1 -1 -1 -1 -2 -2 -2 -2 -3 -3 -4 -4 -2 -2 -1 -1 0 0 -0
Height
3186 3188 3189 3191 3191 3192 3192 3194 3195 3195 3196 3197 3199 3201 3202 3203 3204 3205 3207 3209 3211 3214 3216 3218 3220 3222 3224 3226 3230 3232 3234 3235 3237 3238 3239 3240 3241 3242 3244 3246 3246 3247 3247 3247
3188 3188 3189 3189 3189 3190 3191 3192 3193 3194 3195 3197 3198 3201 3201 3203 3206 3207 3208 3210 3213 3215 3216 3217 3219 3222 3225 3227 3229 3231 3233 3234 3235 3237 3237 3239 3240 3240 3241 3242 3243 3244 3245 3245
3185 3187 3188 3188 3188 3189 3189 3190 3192 3193 3194 3196 3197 3199 3200 3202 3204 3206 3208 3211 3213 3215 3217 3218 3219 3222 3224 3226 3229 3230 3232 3233 3234 3235 3236 3237 3238 3238 3239 3238 3239 3241 3242 3242
3183 3185 3186 3187 3188 3189 3189 3190 3191 3193 3194 3196 3196 3197 3198 3199 3201 3204 3207 3209 3211 3214 3216 3218 3219 3222 3224 3226 3228 3228 3230 3231 3232 3233 3233 3234 3235 3235 3235 3235 3235 3236 3237 3239
3181 3182 3184 3185 3187 3188 3189 3190 3191 3192 3193 3194 3196 3199 3194 3196 3198 3200 3204 3207 3210 3213 3216 3218 3220 3222 3224 3226 3227 3227 3227 3229 3230 3230 3231 3231 3231 3232 3231 3231 3232 3232 3233 3234
3178 3180 3182 3183 3185 3187 3188 3190 3191 3192 3193 3194 3193 3196 3194 3193 3194 3196 3198 3202 3208 3210 3212 3213 3215 3218 3221 3222 3224 3226 3227 3227 3228 3228 3229 3229 3229 3229 3229 3229 3230 3230 3230 3230
3176 3178 3180 3182 3183 3185 3186 3189 3190 3190 3190 3189 3191 3193 3192 3191 3190 3190 3194 3196 3202 3208 3210 3210 3211 3214 3217 3219 3221 3222 3223 3224 3225 3225 3226 3227 3227 3226 3226 3226 3226 3226 3226 3227
3174 3177 3178 3180 3181 3183 3184 3186 3188 3188 3186 3188 3189 3190 3188 3188 3188 3187 3187 3191 3198 3204 3207 3208 3209 3211 3212 3214 3215 3216 3216 3216 3209 3219 3221 3221 3221 3221 3222 3222 3223 3223 3223 3223
3171 3174 3175 3177 3178 3180 3180 3183 3185 3185 3188 3189 3190 3188 3187 3186 3186 3186 3186 3188 3192 3199 3203 3205 3205 3207 3208 3210 3211 3212 3209 3212 3213 3215 3215 3216 3215 3215 3217 3217 3217 3217 3218 3218
3168 3172 3173 3175 3176 3178 3179 3182 3184 3185 3186 3184 3186 3186 3185 3185 3185 3186 3187 3187 3190 3194 3199 3200 3201 3202 3205 3208 3208 3209 3211 3211 3211 3211 3212 3213 3213 3212 3212 3212 3211 3211 3211 3210
3166 3168 3173 3173 3174 3175 3177 3178 3180 3181 3182 3180 3181 3183 3181 3182 3183 3183 3184 3186 3189 3192 3194 3196 3197 3199 3203 3203 3205 3206 3208 3209 3209 3209 3209 3209 3209 3209 3208 3207 3206 3206 3205 3205
3163 3165 3168 3171 3171 3173 3174 3176 3177 3178 3179 3178 3179 3181 3179 3181 3182 3182 3183 3183 3186 3188 3190 3192 3195 3196 3200 3200 3200 3204 3203 3203 3203 3204 3204 3203 3203 3202 3201 3201 3200 3199 3199 3198
3161 3163 3167 3172 3174 3172 3173 3173 3174 3175 3175 3175 3177 3179 3177 3180 3181 3182 3183 3185 3187 3188 3190 3192 3193 3194 3195 3197 3198 3199 3202 3202 3199 3198 3198 3197 3196 3194 3193 3192 3191 3190 3190 3189
3159 3160 3162 3165 3167 3169 3171 3171 3172 3172 3173 3172 3172 3171 3173 3176 3179 3181 3182 3184 3186 3188 3189 3189 3190 3191 3192 3193 3194 3194 3195 3194 3193 3193 3191 3189 3187 3186 3184 3182 3181 3179 3177 3177
3157 3158 3160 3162 3164 3166 3167 3168 3169 3169 3170 3170 3170 3169 3171 3173 3176 3179 3181 3182 3184 3186 3186 3187 3188 3188 3189 3188 3188 3188 3188 3186 3185 3183 3182 3180 3178 3176 3173 3170 3168 3166 3164 3162
3154 3157 3159 3161 3162 3164 3166 3167 3167 3167 3167 3167 3168 3168 3169 3172 3174 3177 3179 3181 3182 3183 3183 3184 3184 3184 3184 3184 3184 3183 3181 3179 3177 3175 3172 3169 3167 3165 3161 3157 3153 3150 3147 3145
3153 3155 3159 3162 3162 3164 3166 3163 3163 3163 3164 3165 3165 3166 3166 3169 3172 3175 3176 3177 3178 3179 3179 3179 3179 3178 3178 3176 3174 3172 3169 3166 3163 3159 3156 3152 3148 3145 3142 3140 3136 3132 3129 3127
3152 3155 3158 3160 3162 3164 3160 3159 3160 3160 3160 3161 3162 3163 3165 3168 3170 3173 3173 3174 3174 3174 3173 3173 3172 3171 3169 3165 3163 3160 3155 3151 3147 3142 3136 3131 3127 3123 3119 3116 3114 3112 3109 3106
3153 3155 3157 3159 3160 3160 3158 3158 3159 3159 3160 3160 3161 3163 3165 3167 3170 3170 3170 3170 3170 3168 3168 3167 3165 3162 3158 3154 3150 3145 3140 3134 3129 3123 3117 3112 3106 3100 3096 3092 3089 3087 3085 3085
3152 3154 3157 3155 3156 3157 3156 3157 3158 3159 3161 3161 3161 3163 3165 3167 3168 3167 3166 3164 3163 3161 3159 3158 3154 3149 3147 3143 3139 3134 3128 3121 3115 3107 3100 3093 3086 3079 3073 3070 3068 3065 3062 3059
3152 3153 3154 3153 3154 3154 3154 3155 3157 3160 3163 3159 3161 3162 3163 3163 3163 3162 3160 3158 3156 3154 3151 3149 3146 3142 3139 3136 3132 3126 3120 3112 3103 3095 3086 3078 3069 3063 3059 3053 3047 3041 3038 3036
3151 3152 3152 3152 3152 3153 3153 3154 3157 3157 3157 3158 3158 3158 3159 3158 3157 3155 3153 3152 3150 3147 3144 3142 3140 3138 3136 3132 3127 3121 3115 3106 3095 3086 3076 3067 3059 3051 3044 3037 3031 3027 3022 3019
3150 3150 3150 3151 3150 3150 3151 3151 3152 3153 3153 3153 3153 3153 3153 3152 3150 3149 3147 3145 3143 3141 3139 3137 3135 3133 3132 3126 3121 3115 3109 3101 3092 3081 3070 3062 3053 3044 3033 3024 3018 3012 3009 3004
3146 3147 3147 3148 3148 3148 3148 3149 3150 3150 3149 3149 3148 3147 3146 3145 3145 3143 3142 3140 3137 3134 3132 3130 3128 3126 3124 3120 3115 3109 3102 3095 3087 3077 3064 3055 3045 3036 3026 3019 3011 3004 2997 2990
3144 3145 3145 3146 3146 3146 3146 3146 3145 3145 3144 3143 3142 3141 3140 3140 3139 3138 3136 3134 3131 3129 3127 3126 3124 3121 3118 3114 3110 3104 3097 3090 3082 3073 3063 3052 3040 3030 3018 3008 2999 2993 2988 2981
3141 3142 3143 3143 3142 3143 3143 3143 3142 3141 3139 3138 3136 3136 3135 3134 3133 3132 3129 3127 3124 3123 3122 3121 3119 3116 3113 3109 3105 3099 3094 3086 3080 3071 3060 3050 3039 3026 3016 3001 2992 2986 2979 2973
Wind_Speed
11 8 7 4 5 7 8 6 4 5 6 5 4 3 2 6 9 10 14 15 17 20 21 19 16 14 12 10 8 8 7 7 7 7 8 9 10 12 10 12 11 11 12 11
15 14 7 7 8 9 10 10 7 5 3 4 6 4 4 3 4 6 7 13 17 22 22 21 18 14 13 10 9 8 6 5 5 5 6 8 9 10 11 14 15 14 15 14
17 11 9 10 11 10 11 10 6 6 9 8 6 8 11 9 8 13 11 11 15 18 18 18 18 15 9 8 8 7 6 6 4 5 5 4 5 6 7 9 12 15 16 18
17 15 10 10 9 8 6 5 7 7 8 5 9 1 4 12 13 13 16 17 16 18 24 23 19 14 9 7 8 8 8 8 7 5 4 3 3 5 7 9 11 15 18 19
13 12 12 13 12 7 4 6 5 4 8 5 7 5 8 8 13 18 18 13 22 24 22 18 15 12 9 7 5 9 12 12 10 8 4 3 3 6 8 9 12 14 17 19
12 11 12 14 12 9 7 8 6 6 7 7 7 8 5 9 13 15 21 23 19 24 20 19 16 12 12 11 11 8 9 8 8 7 6 5 7 6 7 10 11 13 16 19
11 11 9 12 11 10 9 7 4 5 6 7 10 7 7 8 15 18 21 24 26 19 22 20 18 17 14 16 15 15 14 15 11 9 8 10 11 11 11 11 11 11 13 15
13 11 11 8 10 9 10 10 8 6 6 3 4 5 4 8 9 13 13 17 24 24 18 18 21 17 14 13 19 19 18 23 15 8 13 17 17 16 15 14 15 14 16 16
15 9 14 11 8 8 6 9 13 9 3 3 3 3 5 6 4 3 8 18 21 30 28 21 21 20 18 10 12 19 16 13 12 12 16 13 17 9 13 17 20 22 21 23
11 11 14 12 8 7 8 9 4 6 6 6 4 3 5 5 7 5 5 13 19 26 28 27 24 23 22 16 13 15 13 14 10 9 10 10 9 10 12 14 15 18 22 23
12 10 13 11 8 10 9 10 7 6 4 3 4 4 11 8 10 7 9 14 19 23 27 28 30 29 29 28 19 14 12 11 10 13 14 14 12 13 15 16 18 18 20 23
15 10 12 10 7 10 11 10 10 8 6 6 3 4 15 13 14 10 11 14 16 18 22 26 28 31 23 24 23 17 12 17 20 20 21 21 22 23 24 25 27 28 28 29
16 12 11 5 5 7 8 10 11 11 8 9 6 4 17 16 15 15 13 14 14 13 13 11 10 10 9 9 9 12 20 22 24 25 27 28 29 31 33 35 37 38 38 39
17 13 12 12 8 9 9 10 9 12 7 8 11 11 23 21 20 20 19 18 17 16 14 14 14 13 13 13 17 19 22 26 30 31 36 38 39 41 42 44 47 48 49 48
17 16 12 11 10 11 12 12 8 7 9 9 10 15 26 27 24 23 21 19 18 17 16 15 15 16 19 21 24 27 30 34 38 40 42 45 47 50 52 55 56 56 57 58
14 10 11 8 8 7 7 8 8 8 8 9 9 13 27 29 27 25 23 21 19 19 19 19 22 23 26 29 32 35 38 42 45 49 52 54 56 57 59 61 61 61 62 62
10 10 9 4 8 7 7 11 12 13 11 11 12 16 24 31 28 24 21 20 19 20 21 22 25 29 32 36 40 43 47 49 52 54 56 57 59 61 61 61 63 64 64 63
12 10 6 4 5 5 7 8 6 7 9 14 17 13 23 26 25 21 18 17 18 21 24 27 31 34 38 41 43 45 46 47 50 52 54 57 58 59 61 61 62 63 65 65
8 5 5 5 6 5 6 7 8 4 3 6 6 6 16 20 16 15 15 18 21 25 28 31 34 36 37 37 38 41 44 47 50 54 57 58 60 61 62 62 61 61 61 62
7 6 6 9 4 5 3 11 6 4 2 2 3 4 6 9 12 16 19 23 25 28 29 29 29 31 32 34 36 39 42 48 52 54 56 59 59 60 59 58 57 59 61 62
9 7 6 7 3 4 7 9 7 3 2 2 4 8 11 13 16 18 21 24 26 28 28 27 28 30 29 31 35 41 45 51 54 52 49 48 49 50 49 49 48 51 54 58
9 5 5 6 4 4 6 8 6 5 6 7 10 11 12 15 18 21 23 23 23 24 25 25 24 26 27 31 36 41 42 44 42 39 38 37 41 42 38 37 36 38 44 47
8 8 4 4 3 4 5 6 7 7 10 11 11 13 16 17 16 17 18 18 21 22 24 23 25 26 27 32 33 35 34 38 42 40 37 35 37 46 47 40 35 38 39 43
10 8 9 6 6 6 6 7 9 11 12 13 14 14 13 13 14 14 15 17 21 23 22 22 23 25 23 26 27 27 31 36 33 35 37 43 43 42 51 47 41 41 37 39
8 8 6 6 7 8 7 9 13 11 13 14 14 16 15 13 13 14 18 20 20 18 19 19 19 18 21 24 23 28 28 29 33 32 37 40 46 36 44 45 36 31 29 33
9 8 8 8 9 8 6 8 12 15 16 15 15 14 14 13 14 15 18 17 16 16 16 13 14 17 19 23 24 29 29 30 35 32 36 40 45 28 35 29 35 25 26 23
Wind_Direction
214 211 216 217 232 252 273 272 258 272 270 241 246 251 222 164 168 165 170 174 173 160 155 149 144 141 137 133 132 136 154 189 213 225 248 261 252 244 239 227 236 234 240 242
220 222 223 246 264 259 248 255 256 226 195 214 222 218 219 178 147 120 162 172 167 168 165 158 153 146 134 134 143 153 159 170 190 217 241 257 265 255 245 239 243 247 242 242
222 220 208 238 256 208 218 244 208 194 192 201 212 241 233 227 200 188 163 165 177 178 169 160 154 144 154 138 145 150 150 172 185 209 221 234 228 231 239 238 238 242 245 238
228 215 214 208 171 155 160 160 183 211 190 195 203 213 228 233 234 222 194 173 167 164 152 145 143 147 146 136 168 167 173 177 175 164 166 178 226 224 223 230 239 244 245 246
204 207 225 192 198 192 185 171 165 174 193 199 211 231 266 257 239 236 232 209 169 165 157 149 138 143 159 177 174 177 179 179 164 167 188 198 204 229 228 231 233 237 245 250
191 181 184 194 194 210 210 208 215 229 227 240 228 215 265 260 252 236 227 221 201 178 183 180 184 197 195 211 204 210 188 207 227 242 247 242 263 267 260 259 252 250 252 252
191 184 178 180 184 187 196 190 223 232 222 252 232 211 227 252 254 253 226 222 211 202 180 194 208 216 218 205 208 208 213 215 211 222 254 272 268 264 254 256 263 262 261 261
190 185 186 178 192 204 214 218 230 246 238 218 190 218 232 256 265 256 244 212 207 206 215 210 204 207 202 216 220 215 205 213 219 255 266 264 256 261 261 262 251 261 267 266
198 181 186 179 184 199 213 211 227 224 189 215 196 259 250 284 264 283 201 177 190 199 212 220 224 222 210 235 236 235 248 252 265 251 257 287 270 262 270 271 263 265 266 268
191 183 191 189 184 193 208 208 187 196 181 228 186 218 231 220 212 250 200 179 183 200 208 216 220 227 229 236 238 226 230 237 235 264 286 289 278 278 274 273 274 276 279 274
198 190 182 183 193 188 182 194 202 193 187 230 193 204 199 208 201 199 200 188 190 206 209 220 229 230 227 239 243 231 236 244 258 276 283 283 286 290 294 296 296 295 292 287
194 186 162 166 176 192 201 208 209 226 216 205 227 202 188 192 185 190 202 185 183 198 207 217 230 235 251 257 241 227 255 268 268 273 283 287 287 289 290 289 290 291 291 290
179 167 131 136 169 194 196 211 212 220 224 203 213 197 188 186 182 178 184 170 177 183 188 197 216 230 231 237 221 223 230 251 266 274 279 282 284 285 286 288 289 289 288 288
190 191 198 217 211 190 209 221 214 200 221 232 218 213 189 186 189 186 183 186 185 189 197 205 213 227 244 251 258 262 268 270 276 280 282 284 285 286 287 287 288 289 288 286
195 196 192 198 208 219 217 205 209 228 243 238 254 231 198 191 192 193 192 194 199 208 217 227 238 249 258 266 270 274 277 278 280 282 283 285 286 287 287 287 286 285 284 284
196 183 186 179 205 213 221 228 239 243 244 244 253 213 201 196 197 202 203 207 212 223 234 244 252 259 263 266 269 273 274 275 275 276 278 278 278 278 279 280 280 280 280 280
194 193 169 174 213 231 253 245 246 254 254 252 236 234 214 202 202 205 212 220 232 243 253 261 266 271 277 281 284 286 286 286 286 286 284 282 281 281 279 278 278 278 277 277
148 143 151 170 189 224 246 239 211 219 235 232 225 229 213 203 205 212 226 241 256 268 276 282 288 292 292 292 292 293 292 292 292 292 292 291 289 286 283 280 277 275 274 275
149 166 169 167 198 243 217 192 149 126 168 189 215 215 214 209 217 239 257 270 279 284 288 291 295 297 296 298 301 304 307 309 307 303 300 297 294 292 289 287 285 281 277 273
174 190 212 188 179 202 213 186 166 150 232 203 253 219 209 233 254 268 280 289 293 294 295 300 304 303 305 309 313 313 316 317 315 311 305 301 299 294 289 287 285 280 275 273
189 195 215 189 188 218 186 177 182 193 217 235 237 258 271 272 273 282 290 294 294 295 295 298 300 303 308 310 314 314 315 321 318 316 309 306 302 300 300 291 284 278 274 270
209 207 202 197 194 225 193 190 214 234 251 284 288 287 279 284 288 289 291 293 292 292 294 296 297 297 297 304 310 315 322 330 329 324 325 324 321 317 310 303 289 282 281 280
210 217 209 195 192 262 268 228 217 250 276 292 297 293 289 281 275 282 288 290 290 291 290 291 290 291 298 300 315 316 325 330 336 336 332 322 319 320 323 314 304 301 290 283
231 221 228 239 262 268 265 270 270 275 284 291 289 290 284 269 274 277 285 289 289 290 288 288 294 300 311 316 322 316 327 328 336 346 354 346 325 320 318 315 304 303 310 301
222 223 232 262 277 280 277 270 279 287 302 303 296 291 279 272 272 281 292 294 290 283 284 291 298 313 326 328 326 330 343 336 336 346 350 347 343 330 324 323 325 318 314 312
227 233 277 272 268 263 281 292 291 297 298 286 290 275 270 276 274 293 303 308 297 289 293 293 309 325 330 332 333 329 333 330 339 347 354 357 1 340 359 346 326 325 319 309